Location: Deneb Observatory
(47.2267°N, 100.4953°W)
Time: 10:52:29
(UTC-06:00)

Amateur Radio Satellites - All Passes

Search period start: 27 January 2015 10:22
Search period end: 28 January 2015 10:22
Location: Deneb Observatory, 47.2267°N, 100.4953°W

Satellite Date Start Highest point End Downlink Frequencies (MHz)
Time Altitude Azimuth
FUNcube-1 27 Jan 10:26:40 10:30:48 36° 96° (E) 10:34:50 145.935
NANOSAT C BR1 27 Jan 10:28:45 10:32:57 58° 72° (ENE) 10:37:12 145.865
50 SAT 27 Jan 10:32:01 10:34:39 17° 90° (E) 10:37:24 437.505
HUMSAT D 27 Jan 10:34:42 10:38:11 24° 93° (E) 10:41:42 437.325/437.525
AISAT 27 Jan 10:36:01 10:39:29 22° 92° (E) 10:43:03 437.250
COMPASS 1 27 Jan 10:40:07 10:44:00 37° 290° (WNW) 10:47:50 437.405
AIST 2 27 Jan 10:40:57 10:43:29 15° 28° (NNE) 10:46:05 435.215
UWE-3 27 Jan 10:41:04 10:45:36 61° 100° (E) 10:49:59 435.000/436.395/437.385
QB50P2 27 Jan 10:41:40 10:45:58 81° 74° (ENE) 10:50:18 145.880/145.840
UNISAT 6 27 Jan 10:43:17 10:47:59 64° 259° (W) 10:52:41 437.425
PHONESAT 2.4 27 Jan 10:44:36 10:46:30 14° 157° (SSE) 10:48:28 2401.200-2431.200
CANX-2 27 Jan 10:48:11 10:51:33 23° 295° (WNW) 10:54:50 2200.000
QB50P1 27 Jan 10:51:50 10:56:07 82° 257° (WSW) 11:00:27 145.935-145.965
BEESAT 2 27 Jan 10:56:21 11:00:01 28° 40° (NE) 11:03:41 435.950
VELOX 1 27 Jan 11:04:59 11:09:13 40° 97° (E) 11:13:28 145.980
POLYITAN 1 27 Jan 11:05:10 11:09:25 59° 260° (W) 11:13:44 437.675
Oscar 11 27 Jan 11:05:34 11:09:44 47° 289° (WNW) 11:13:52 145.826/435.025
AAUSAT CUBESAT 2 27 Jan 11:08:35 11:11:55 23° 294° (WNW) 11:15:09 437.432
RS-15 27 Jan 11:10:27 11:20:05 32° 8° (N) 11:30:04 29.354- 29.394
BRITE-PL 27 Jan 11:11:23 11:15:24 19° 301° (WNW) 11:19:12 437.365/2234.400
BEESAT 3 27 Jan 11:12:39 11:16:37 40° 45° (NE) 11:20:33 437.485
CUTE 1.7 + AOD 2 27 Jan 11:13:24 11:15:54 15° 298° (WNW) 11:18:15 437.475
BUGSAT 1 27 Jan 11:15:27 11:19:30 58° 259° (W) 11:23:37 437.445
DELFI C3 27 Jan 11:15:50 11:19:40 41° 289° (WNW) 11:23:28 145.870
GOMX 1 27 Jan 11:17:57 11:22:02 21° 300° (WNW) 11:25:53 467.674
ANTELSAT 27 Jan 11:19:51 11:24:02 30° 266° (W) 11:28:09 437.575/2403.000
CUBEBUG 1 27 Jan 11:20:23 11:24:05 26° 93° (E) 11:27:50 437.445
SO-50 27 Jan 11:25:28 11:29:48 44° 120° (ESE) 11:34:20 436.795
AIST 1 27 Jan 11:26:15 11:29:35 23° 89° (E) 11:33:00
POPSAT HIP 1 27 Jan 11:26:49 11:30:48 36° 264° (W) 11:34:47 437.405
TIGRISAT 27 Jan 11:29:14 11:33:12 25° 268° (W) 11:37:03 435.000
DUCHIFAT 1 27 Jan 11:30:54 11:34:47 33° 264° (W) 11:38:41 145.980
HO-68 27 Jan 11:32:21 11:38:17 29° 304° (NW) 11:44:06 435.675
CUBEBUG 2 27 Jan 11:33:03 11:37:23 37° 291° (WNW) 11:41:31 437.445
VERMONT LUNAR 27 Jan 11:35:26 11:38:20 24° 171° (S) 11:41:15 437.305
UKube-1 27 Jan 11:39:46 11:43:51 38° 291° (WNW) 11:47:53 .
DOVE 4 27 Jan 11:40:54 11:44:21 17° 301° (WNW) 11:47:33 437.250
CINEMA 3 27 Jan 11:43:36 11:47:25 22° 298° (WNW) 11:51:02 145.822/145.860
GONETS M04 27 Jan 11:46:19 11:53:34 29° 61° (ENE) 12:00:59
ZACube-1 27 Jan 11:50:18 11:54:24 34° 292° (WNW) 11:58:21 437.345
DX 1 27 Jan 11:58:17 12:01:58 26° 295° (WNW) 12:05:35 434.975-435.025
TISAT 1 27 Jan 11:59:53 12:02:36 17° 89° (E) 12:05:28 437.305
FUNcube-1 27 Jan 12:03:15 12:07:02 27° 294° (WNW) 12:10:41 145.935
50 SAT 27 Jan 12:06:10 12:10:06 47° 289° (WNW) 12:13:59 437.505
NANOSAT C BR1 27 Jan 12:06:38 12:09:16 15° 271° (W) 12:11:47 145.865
ESTCUBE 1 27 Jan 12:07:44 12:12:17 80° 103° (ESE) 12:16:49 437.505/2401.250
HUMSAT D 27 Jan 12:10:11 12:14:06 35° 291° (WNW) 12:17:56 437.325/437.525
PCSat 27 Jan 12:10:33 12:14:03 17° 29° (NNE) 12:17:40 145.827
AISAT 27 Jan 12:12:02 12:16:22 44° 290° (WNW) 12:20:39 437.250
UWE-3 27 Jan 12:18:36 12:21:44 18° 299° (WNW) 12:24:40 435.000/436.395/437.385
AIST 2 27 Jan 12:18:40 12:22:58 65° 50° (NE) 12:27:12 435.215
QB50P2 27 Jan 12:21:08 12:22:34 11° 274° (W) 12:23:46 145.880/145.840
PHONESAT 2.4 27 Jan 12:21:20 12:24:26 26° 173° (S) 12:27:33 2401.200-2431.200
Oscar 19 27 Jan 12:23:40 12:28:15 33° 66° (ENE) 12:32:54 437.125/150
BEESAT 2 27 Jan 12:34:24 12:38:24 42° 240° (WSW) 12:42:19 435.950
ITAMSAT 1 27 Jan 12:36:28 12:39:48 18° 59° (ENE) 12:43:19 435.822/435.867
VELOX 1 27 Jan 12:41:57 12:45:39 25° 295° (WNW) 12:49:17 145.980
AO-7 27 Jan 12:48:26 12:51:23 13° 34° (NE) 12:54:41 29.400- 29.500
SPROUT 27 Jan 12:50:03 12:54:22 55° 100° (E) 12:58:38 437.525
BEESAT 3 27 Jan 12:51:05 12:54:38 27° 244° (WSW) 12:58:05 437.485
CUBEBUG 1 27 Jan 12:56:28 13:00:35 37° 292° (WNW) 13:04:39 437.445
SWISSCUBE 27 Jan 13:01:43 13:04:05 14° 87° (E) 13:06:41 437.505
AIST 1 27 Jan 13:03:12 13:07:07 34° 287° (WNW) 13:11:02
SO-50 27 Jan 13:06:16 13:10:30 33° 320° (NW) 13:14:51 436.795
VERMONT LUNAR 27 Jan 13:12:59 13:15:57 25° 188° (S) 13:18:54 437.305
BEESAT 27 Jan 13:17:19 13:20:32 18° 90° (E) 13:23:53 436.000
ITUPSAT 1 27 Jan 13:19:47 13:23:05 19° 90° (E) 13:26:33 437.325
Gurwin Techsat 1B 27 Jan 13:19:51 13:24:16 28° 63° (ENE) 13:28:47 435.225
RS-15 27 Jan 13:24:27 13:35:27 57° 39° (NE) 13:46:59 29.354- 29.394
HORYU 2 27 Jan 13:29:03 13:29:38 10° 56° (ENE) 13:30:27 437.375
TISAT 1 27 Jan 13:34:37 13:38:50 54° 288° (WNW) 13:43:01 437.305
GONETS M04 27 Jan 13:42:42 13:51:23 73° 265° (W) 14:00:00
ESTCUBE 1 27 Jan 13:46:10 13:48:38 14° 301° (WNW) 13:50:56 437.505/2401.250
PCSat 27 Jan 13:53:14 13:58:39 62° 53° (NE) 14:04:01 145.827
AIST 2 27 Jan 13:58:21 14:01:10 17° 248° (WSW) 14:03:50 435.215
PHONESAT 2.4 27 Jan 13:59:27 14:02:29 25° 190° (S) 14:05:32 2401.200-2431.200
Oscar 19 27 Jan 14:02:43 14:07:34 38° 264° (W) 14:12:24 437.125/150
CUSAT 1 27 Jan 14:03:47 14:07:25 15° 47° (NE) 14:10:52 437.405
KKS-1 27 Jan 14:12:36 14:14:40 13° 87° (E) 14:16:53 437.445
ITAMSAT 1 27 Jan 14:13:37 14:18:48 77° 258° (WSW) 14:24:01 435.822/435.867
SPROUT 27 Jan 14:27:04 14:30:07 18° 297° (WNW) 14:33:02 437.525
AO-7 27 Jan 14:34:30 14:42:03 41° 57° (ENE) 14:49:43 29.400- 29.500
SWISSCUBE 27 Jan 14:37:50 14:42:38 77° 285° (WNW) 14:47:25 437.505
SO-50 27 Jan 14:50:30 14:52:32 12° 344° (NNW) 14:54:31 436.795
VERMONT LUNAR 27 Jan 14:51:46 14:53:25 13° 204° (SSW) 14:55:01 437.305
BEESAT 27 Jan 14:54:07 14:58:51 59° 288° (WNW) 15:03:32 436.000
JAS-2 27 Jan 14:55:22 14:58:16 15° 58° (ENE) 15:01:18 435.910
ITUPSAT 1 27 Jan 14:56:43 15:01:25 57° 289° (WNW) 15:06:07 437.325
Gurwin Techsat 1B 27 Jan 14:58:57 15:04:04 47° 261° (W) 15:09:12 435.225
HORYU 2 27 Jan 15:01:06 15:05:35 72° 74° (ENE) 15:10:06 437.375
DANDE 27 Jan 15:05:29 15:12:06 34° 62° (ENE) 15:17:24 436.750
RS-15 27 Jan 15:37:08 15:48:05 56° 244° (WSW) 15:59:25 29.354- 29.394
PCSat 27 Jan 15:37:24 15:41:41 23° 251° (WSW) 15:45:49 145.827
PHONESAT 2.4 27 Jan 15:39:01 15:40:22 12° 206° (SSW) 15:41:39 2401.200-2431.200
GONETS M04 27 Jan 15:41:52 15:46:49 16° 286° (WNW) 15:51:15
AUBIESAT-1 27 Jan 15:44:30 15:47:02 20° 100° (E) 15:49:39 437.475
CUSAT 1 27 Jan 15:45:24 15:52:20 71° 75° (ENE) 15:57:30 437.405
STARS 27 Jan 15:45:32 15:50:01 73° 102° (ESE) 15:54:27 437.465
KKS-1 27 Jan 15:47:25 15:51:56 74° 286° (WNW) 15:56:24 437.445
ITAMSAT 1 27 Jan 15:58:03 15:59:19 11° 277° (W) 16:00:15 435.822/435.867
Cubesat XI-IV 27 Jan 16:06:08 16:07:15 11° 52° (NE) 16:08:38 437.490
SWISSCUBE 27 Jan 16:17:54 16:19:47 12° 304° (WNW) 16:21:27 437.505
CUTE-I 27 Jan 16:24:41 16:27:34 15° 56° (NE) 16:30:38 437.470
AO-7 27 Jan 16:26:26 16:34:39 57° 258° (WSW) 16:42:53 29.400- 29.500
SO-50 27 Jan 16:34:18 16:35:14 10° 8° (N) 16:36:13 436.795
JAS-2 27 Jan 16:37:20 16:42:52 87° 252° (WSW) 16:48:07 435.910
HORYU 2 27 Jan 16:40:27 16:42:51 14° 272° (W) 16:45:03 437.375
M-CUBED/EXP-1 PRIME 27 Jan 16:43:59 16:47:16 61° 292° (WNW) 16:50:35 437.505
DANDE 27 Jan 16:48:59 16:55:56 48° 269° (W) 17:01:11 436.750
O/OREOS (USA 219) 27 Jan 16:53:09 16:57:17 38° 108° (ESE) 17:01:30 437.305
MOZHAYETS 4 27 Jan 17:12:26 17:16:44 40° 97° (E) 17:21:03
AUBIESAT-1 27 Jan 17:19:13 17:22:04 26° 297° (WNW) 17:24:53 437.475
STARS 27 Jan 17:23:23 17:26:00 15° 300° (WNW) 17:28:28 437.465
KKS-1 27 Jan 17:26:47 17:27:51 11° 304° (WNW) 17:28:43 437.445
CUSAT 1 27 Jan 17:29:46 17:34:21 20° 281° (W) 17:38:02 437.405
Cubesat XI-IV 27 Jan 17:41:11 17:46:23 59° 71° (ENE) 17:51:40 437.490
RS-15 27 Jan 17:53:47 17:58:17 12° 264° (W) 18:01:45 29.354- 29.394
CUTE-I 27 Jan 18:01:37 18:06:56 85° 75° (ENE) 18:12:20 437.470
SO-50 27 Jan 18:13:46 18:17:35 22° 32° (NNE) 18:21:30 436.795
PRISM 27 Jan 18:13:47 18:16:37 18° 91° (E) 18:19:34 437.425
STRAND 1 27 Jan 18:22:36 18:25:11 14° 86° (E) 18:28:00 437.568
JAS-2 27 Jan 18:26:51 18:28:55 12° 275° (W) 18:30:38 435.910
AO-7 27 Jan 18:27:15 18:29:40 11° 281° (W) 18:31:21 29.400- 29.500
HO-68 27 Jan 18:31:18 18:35:41 18° 49° (NE) 18:40:20 435.675
O/OREOS (USA 219) 27 Jan 18:32:53 18:36:49 28° 307° (NW) 18:40:45 437.305
MOZHAYETS 4 27 Jan 18:50:03 18:53:49 25° 295° (WNW) 18:57:31
YUBILEINY 27 Jan 18:51:35 18:57:30 22° 78° (ENE) 19:03:46 435.215
CUBESAT XI-V 27 Jan 18:59:29 19:03:55 41° 97° (E) 19:08:22 437.345
BRITE-PL 27 Jan 19:08:51 19:12:32 20° 60° (ENE) 19:16:30 437.365/2234.400
GOMX 1 27 Jan 19:14:09 19:17:20 17° 58° (ENE) 19:20:47 467.674
Cubesat XI-IV 27 Jan 19:22:53 19:26:58 21° 270° (W) 19:30:56 437.490
SEEDS 27 Jan 19:31:26 19:33:58 16° 62° (ENE) 19:36:38 437.485
DOVE 4 27 Jan 19:34:34 19:37:59 19° 60° (ENE) 19:41:37 437.250
CINEMA 3 27 Jan 19:36:52 19:38:30 12° 56° (NE) 19:40:22 145.822/145.860
CUTE-I 27 Jan 19:44:51 19:47:51 15° 274° (W) 19:50:36 437.470
PRISM 27 Jan 19:48:27 19:52:26 46° 289° (WNW) 19:56:25 437.425
SO-50 27 Jan 19:53:52 19:58:48 87° 233° (SW) 20:03:45 436.795
COMPASS 1 27 Jan 19:59:34 20:02:58 24° 66° (ENE) 20:06:27 437.405
STRAND 1 27 Jan 19:59:58 20:05:09 84° 286° (WNW) 20:10:19 437.568
CANX-2 27 Jan 20:07:47 20:11:50 43° 71° (ENE) 20:15:56 2200.000
UWE-3 27 Jan 20:08:30 20:09:44 11° 57° (ENE) 20:11:12 435.000/436.395/437.385
HO-68 27 Jan 20:15:16 20:22:22 72° 69° (ENE) 20:29:31 435.675
AAUSAT CUBESAT 2 27 Jan 20:26:39 20:30:33 39° 70° (ENE) 20:34:31 437.432
Oscar 11 27 Jan 20:28:07 20:31:31 23° 65° (ENE) 20:34:59 145.826/435.025
CUTE 1.7 + AOD 2 27 Jan 20:31:58 20:36:14 70° 74° (ENE) 20:40:32 437.475
DELFI C3 27 Jan 20:32:56 20:35:53 20° 65° (ENE) 20:38:54 145.870
CUBESAT XI-V 27 Jan 20:37:18 20:41:13 26° 295° (WNW) 20:45:04 437.345
YUBILEINY 27 Jan 20:44:34 20:53:17 89° 280° (W) 21:02:03 435.215
BRITE-PL 27 Jan 20:45:27 20:50:29 69° 259° (W) 20:55:57 437.365/2234.400
GOMX 1 27 Jan 20:49:40 20:54:45 85° 255° (WSW) 21:00:12 467.674
CUBEBUG 2 27 Jan 20:57:38 21:01:53 34° 68° (ENE) 21:06:14 437.445
UKube-1 27 Jan 21:02:03 21:05:51 31° 67° (ENE) 21:09:42 .
SEEDS 27 Jan 21:05:09 21:09:24 62° 260° (W) 21:13:39 437.485
CINEMA 3 27 Jan 21:09:57 21:14:52 70° 74° (ENE) 21:19:55 145.822/145.860
DOVE 4 27 Jan 21:10:07 21:15:10 75° 258° (WSW) 21:20:29 437.250
ZACube-1 27 Jan 21:12:58 21:17:05 34° 68° (ENE) 21:21:16 437.345
DX 1 27 Jan 21:20:20 21:24:31 48° 70° (ENE) 21:28:45 434.975-435.025
50 SAT 27 Jan 21:22:49 21:25:36 18° 64° (ENE) 21:28:31 437.505
FUNcube-1 27 Jan 21:25:16 21:29:36 43° 70° (ENE) 21:34:00 145.935
HUMSAT D 27 Jan 21:29:47 21:33:29 28° 67° (ENE) 21:37:14 437.325/437.525
COMPASS 1 27 Jan 21:34:38 21:38:34 36° 264° (W) 21:42:29 437.405
SO-50 27 Jan 21:36:09 21:38:45 14° 250° (WSW) 21:41:08 436.795
ESTCUBE 1 27 Jan 21:36:15 21:38:36 15° 60° (ENE) 21:41:07 437.505/2401.250
AISAT 27 Jan 21:37:07 21:40:58 29° 66° (ENE) 21:44:53 437.250
UWE-3 27 Jan 21:40:51 21:45:31 73° 75° (ENE) 21:50:15 435.000/436.395/437.385
STRAND 1 27 Jan 21:40:53 21:43:40 14° 304° (NW) 21:46:15 437.568
CANX-2 27 Jan 21:44:43 21:48:02 21° 269° (W) 21:51:14 2200.000
AAUSAT CUBESAT 2 27 Jan 22:03:05 22:06:25 22° 268° (W) 22:09:39 437.432
Oscar 11 27 Jan 22:03:23 22:07:31 41° 263° (W) 22:11:39 145.826/435.025
HO-68 27 Jan 22:05:02 22:10:50 25° 270° (W) 22:16:27 435.675
VELOX 1 27 Jan 22:05:44 22:10:03 53° 71° (ENE) 22:14:25 145.980
DELFI C3 27 Jan 22:06:58 22:10:53 43° 262° (W) 22:14:48 145.870
CUTE 1.7 + AOD 2 27 Jan 22:10:38 22:12:44 13° 273° (W) 22:14:38 437.475
CUBEBUG 1 27 Jan 22:19:46 22:23:36 32° 67° (ENE) 22:27:31 437.445
QB50P2 27 Jan 22:26:42 22:27:46 11° 86° (E) 22:29:04 145.880/145.840
GOMX 1 27 Jan 22:31:36 22:33:54 12° 278° (W) 22:35:57 467.674
UNISAT 6 27 Jan 22:33:15 22:36:41 22° 91° (E) 22:40:08 437.425
CUBEBUG 2 27 Jan 22:34:20 22:38:37 32° 266° (W) 22:42:54 437.445
QB50P1 27 Jan 22:35:43 22:37:52 14° 88° (E) 22:40:11 145.935-145.965
UKube-1 27 Jan 22:38:12 22:42:01 29° 264° (W) 22:45:50 .
YUBILEINY 27 Jan 22:44:54 22:51:36 23° 304° (WNW) 22:58:02 435.215
POLYITAN 1 27 Jan 22:48:40 22:51:43 19° 90° (E) 22:54:52 437.675
ISS 27 Jan 22:49:17 22:51:47 21° 139° (SE) 22:54:22 145.825
ZACube-1 27 Jan 22:49:24 22:53:30 30° 266° (W) 22:57:34 437.345
CINEMA 3 27 Jan 22:49:24 22:52:40 17° 273° (W) 22:55:47 145.822/145.860
DOVE 4 27 Jan 22:52:50 22:54:02 11° 279° (W) 22:54:54 437.250
TISAT 1 27 Jan 22:55:35 22:58:38 20° 64° (ENE) 23:01:48 437.305
BUGSAT 1 27 Jan 22:55:43 22:58:31 17° 90° (E) 23:01:26 437.445
50 SAT 27 Jan 22:56:23 23:00:25 50° 260° (W) 23:04:30 437.505
DX 1 27 Jan 22:57:54 23:01:05 19° 269° (W) 23:04:11 434.975-435.025
FUNcube-1 27 Jan 23:02:25 23:06:10 24° 268° (W) 23:09:50 145.935
HUMSAT D 27 Jan 23:05:14 23:09:12 33° 264° (W) 23:13:10 437.325/437.525
AIST 1 27 Jan 23:06:35 23:10:57 78° 80° (E) 23:15:19
ANTELSAT 27 Jan 23:08:31 23:12:53 47° 99° (E) 23:17:08 437.575/2403.000
POPSAT HIP 1 27 Jan 23:09:06 23:12:54 29° 95° (E) 23:16:42 437.405
ESTCUBE 1 27 Jan 23:10:28 23:14:57 77° 257° (WSW) 23:19:29 437.505/2401.250
DUCHIFAT 1 27 Jan 23:12:42 23:16:34 31° 95° (E) 23:20:26 145.980
AISAT 27 Jan 23:13:31 23:17:33 33° 264° (W) 23:21:36 437.250
TIGRISAT 27 Jan 23:17:13 23:21:40 57° 100° (E) 23:25:59 435.000
UWE-3 27 Jan 23:19:58 23:22:40 15° 273° (W) 23:25:12 435.000/436.395/437.385
VELOX 1 27 Jan 23:43:55 23:47:01 18° 270° (W) 23:50:01 145.980
NANOSAT C BR1 27 Jan 23:46:39 23:50:59 72° 102° (ESE) 23:55:16 145.865
SPROUT 27 Jan 23:47:12 23:51:28 63° 73° (ENE) 23:55:47 437.525
CUBEBUG 1 27 Jan 23:56:12 00:00:01 29° 266° (W) 00:03:49 437.445
QB50P2 28 Jan 00:00:02 00:04:23 82° 283° (WNW) 00:08:42 145.880/145.840
UNISAT 6 28 Jan 00:09:27 00:13:45 43° 290° (WNW) 00:17:55 437.425
QB50P1 28 Jan 00:09:59 00:14:18 66° 286° (WNW) 00:18:34 145.935-145.965
SWISSCUBE 28 Jan 00:11:02 00:14:47 24° 63° (ENE) 00:18:36 437.505
POLYITAN 1 28 Jan 00:23:47 00:27:59 48° 289° (WNW) 00:32:07 437.675
ISS 28 Jan 00:24:44 00:28:02 78° 339° (NNW) 00:31:21 145.825
BEESAT 28 Jan 00:26:43 00:30:49 30° 66° (ENE) 00:35:00 436.000
ITUPSAT 1 28 Jan 00:29:32 00:33:42 31° 66° (ENE) 00:37:55 437.325
TISAT 1 28 Jan 00:30:05 00:34:11 47° 261° (W) 00:38:20 437.305
BUGSAT 1 28 Jan 00:30:11 00:34:22 52° 288° (WNW) 00:38:32 437.445
POPSAT HIP 1 28 Jan 00:44:58 00:48:48 31° 293° (WNW) 00:52:34 437.405
ANTELSAT 28 Jan 00:45:58 00:49:25 21° 297° (WNW) 00:52:42 437.575/2403.000
AIST 1 28 Jan 00:46:41 00:48:02 11° 277° (W) 00:49:10
DUCHIFAT 1 28 Jan 00:48:38 00:52:23 29° 293° (WNW) 00:56:03 145.980
GONETS M04 28 Jan 00:52:36 00:59:32 29° 82° (E) 01:06:42
TIGRISAT 28 Jan 00:54:54 00:58:03 18° 298° (WNW) 01:01:01 435.000
STARS 28 Jan 01:12:06 01:14:04 13° 59° (ENE) 01:16:13 437.465
KKS-1 28 Jan 01:13:39 01:16:47 19° 62° (ENE) 01:20:01 437.445
O/OREOS (USA 219) 28 Jan 01:21:02 01:24:19 19° 47° (NE) 01:27:42 437.305
NANOSAT C BR1 28 Jan 01:23:55 01:26:22 15° 299° (WNW) 01:28:39 145.865
SPROUT 28 Jan 01:25:35 01:28:04 15° 272° (W) 01:30:24 437.525
QB50P2 28 Jan 01:38:24 01:39:39 11° 302° (WNW) 01:40:42 145.880/145.840
SWISSCUBE 28 Jan 01:47:49 01:52:24 47° 261° (W) 01:57:02 437.505
M-CUBED/EXP-1 PRIME 28 Jan 02:01:43 02:05:07 28° 64° (ENE) 02:08:22 437.505
ISS 28 Jan 02:01:44 02:04:50 37° 356° (N) 02:07:58 145.825
BEESAT 28 Jan 02:04:14 02:08:38 36° 264° (W) 02:13:01 436.000
ITUPSAT 1 28 Jan 02:07:12 02:11:34 34° 264° (W) 02:15:55 437.325
Oscar 19 28 Jan 02:10:36 02:15:44 61° 101° (E) 02:20:49 437.125/150
ITAMSAT 1 28 Jan 02:23:36 02:28:09 30° 94° (E) 02:32:47 435.822/435.867
BEESAT 2 28 Jan 02:33:14 02:35:52 17° 113° (ESE) 02:38:39 435.950
AUBIESAT-1 28 Jan 02:35:38 02:39:34 58° 68° (ENE) 02:43:11 437.475
STARS 28 Jan 02:45:30 02:49:57 87° 254° (WSW) 02:54:28 437.465
GONETS M04 28 Jan 02:46:57 02:55:44 71° 283° (WNW) 03:04:28
BEESAT 3 28 Jan 02:47:59 02:51:23 26° 116° (ESE) 02:54:54 437.485
KKS-1 28 Jan 02:48:41 02:53:05 55° 260° (W) 02:57:32 437.445
HORYU 2 28 Jan 02:52:06 02:53:08 11° 85° (E) 02:54:27 437.375
O/OREOS (USA 219) 28 Jan 02:59:40 03:04:15 65° 248° (WSW) 03:08:47 437.305
Gurwin Techsat 1B 28 Jan 03:11:39 03:16:53 55° 100° (E) 03:22:07 435.225
CUSAT 1 28 Jan 03:15:25 03:20:21 18° 79° (E) 03:25:43 437.405
M-CUBED/EXP-1 PRIME 28 Jan 03:36:38 03:40:07 27° 258° (WSW) 03:43:22 437.505
ISS 28 Jan 03:38:30 03:41:45 52° 16° (NNE) 03:45:00 145.825
Oscar 19 28 Jan 03:50:47 03:54:44 22° 299° (WNW) 03:58:31 437.125/150
RS-15 28 Jan 03:57:20 04:03:37 19° 100° (E) 04:10:37 29.354- 29.394
AIST 2 28 Jan 03:57:57 04:02:03 49° 121° (ESE) 04:06:15 435.215
ITAMSAT 1 28 Jan 04:02:54 04:07:48 41° 293° (WNW) 04:12:40 435.822/435.867
BEESAT 2 28 Jan 04:09:35 04:13:42 62° 310° (NW) 04:17:52 435.950
AUBIESAT-1 28 Jan 04:12:48 04:14:49 13° 264° (W) 04:16:35 437.475
MOZHAYETS 4 28 Jan 04:17:20 04:21:49 54° 72° (ENE) 04:26:19
DANDE 28 Jan 04:18:24 04:25:53 41° 88° (E) 04:33:48 436.750
AO-7 28 Jan 04:24:20 04:32:08 43° 98° (E) 04:39:57 29.400- 29.500
BEESAT 3 28 Jan 04:25:27 04:29:23 41° 315° (NW) 04:33:22 437.485
HORYU 2 28 Jan 04:26:04 04:30:34 86° 289° (WNW) 04:35:00 437.375
PCSat 28 Jan 04:38:42 04:43:14 29° 111° (ESE) 04:47:54 145.827
GONETS M04 28 Jan 04:48:47 04:54:35 18° 308° (NW) 04:59:59
Gurwin Techsat 1B 28 Jan 04:52:17 04:56:34 25° 298° (WNW) 05:00:44 435.225
CUSAT 1 28 Jan 04:54:04 05:02:15 73° 97° (E) 05:10:37 437.405
YUBILEINY 28 Jan 04:56:08 04:59:57 14° 46° (NE) 05:04:15 435.215
PRISM 28 Jan 05:07:34 05:10:40 22° 65° (ENE) 05:13:52 437.425
ISS 28 Jan 05:15:06 05:18:13 38° 215° (SW) 05:21:19 145.825
JAS-2 28 Jan 05:26:27 05:31:57 62° 101° (ESE) 05:38:06 435.910
AIST 2 28 Jan 05:37:12 05:40:55 27° 321° (NW) 05:44:37 435.215
STRAND 1 28 Jan 05:40:56 05:45:15 29° 64° (ENE) 05:49:39 437.568
BEESAT 2 28 Jan 05:50:25 05:52:48 14° 332° (NNW) 05:55:05 435.950
MOZHAYETS 4 28 Jan 05:56:11 05:59:26 18° 270° (W) 06:02:35
Cubesat XI-IV 28 Jan 05:56:14 05:59:49 19° 88° (E) 06:03:36 437.490
DANDE 28 Jan 06:00:58 06:09:10 58° 288° (WNW) 06:17:40 436.750
RS-15 28 Jan 06:03:22 06:14:10 73° 121° (ESE) 06:25:09 29.354- 29.394
HORYU 2 28 Jan 06:04:49 06:06:36 12° 302° (WNW) 06:08:12 437.375
CUBESAT XI-V 28 Jan 06:05:57 06:10:26 56° 72° (ENE) 06:15:00 437.345
BEESAT 3 28 Jan 06:07:12 06:08:39 11° 337° (NNW) 06:10:01 437.485
CUTE-I 28 Jan 06:16:03 06:20:31 27° 93° (E) 06:25:04 437.470
AO-7 28 Jan 06:17:08 06:25:10 52° 298° (WNW) 06:33:05 29.400- 29.500
PCSat 28 Jan 06:21:09 06:26:26 52° 310° (NW) 06:31:46 145.827
CUSAT 1 28 Jan 06:38:37 06:46:03 33° 298° (WNW) 06:53:18 437.405
PRISM 28 Jan 06:42:07 06:46:01 40° 262° (W) 06:49:55 437.425
YUBILEINY 28 Jan 06:50:51 06:59:25 55° 73° (ENE) 07:08:03 435.215
JAS-2 28 Jan 07:12:29 07:16:50 24° 298° (WNW) 07:21:22 435.910
STRAND 1 28 Jan 07:19:28 07:24:19 42° 262° (W) 07:29:11 437.568
Cubesat XI-IV 28 Jan 07:35:10 07:40:32 69° 288° (WNW) 07:45:53 437.490
CUBESAT XI-V 28 Jan 07:45:07 07:48:19 18° 271° (W) 07:51:24 437.345
DANDE 28 Jan 07:49:20 07:54:44 17° 311° (NW) 07:59:44 436.750
CUTE-I 28 Jan 07:55:42 08:00:52 48° 291° (WNW) 08:06:00 437.470
PCSat 28 Jan 08:07:58 08:11:12 15° 333° (NNW) 08:14:19 145.827
AO-7 28 Jan 08:11:36 08:16:13 16° 321° (NW) 08:20:32 29.400- 29.500
RS-15 28 Jan 08:17:00 08:27:25 46° 329° (NNW) 08:38:02 29.354- 29.394
TIGRISAT 28 Jan 08:45:54 08:47:16 11° 57° (ENE) 08:48:50 435.000
BRITE-PL 28 Jan 08:47:20 08:52:34 37° 94° (E) 08:57:42 437.365/2234.400
SEEDS 28 Jan 08:47:41 08:50:30 18° 90° (E) 08:53:25 437.485
YUBILEINY 28 Jan 08:48:08 08:56:02 38° 274° (W) 09:03:48 435.215
GOMX 1 28 Jan 08:49:11 08:53:45 27° 90° (E) 08:58:16 467.674
CINEMA 3 28 Jan 09:03:51 09:06:25 15° 85° (E) 09:09:09 145.822/145.860
DOVE 4 28 Jan 09:07:01 09:11:28 28° 91° (E) 09:15:50 437.250
NANOSAT C BR1 28 Jan 09:10:33 09:11:21 11° 58° (ENE) 09:12:21 145.865
BEESAT 2 28 Jan 09:12:54 09:13:05 10° 20° (NNE) 09:13:23 435.950
COMPASS 1 28 Jan 09:15:23 09:19:00 28° 94° (E) 09:22:38 437.405
Cubesat XI-IV 28 Jan 09:17:25 09:19:47 13° 306° (NW) 09:21:56 437.490
QB50P2 28 Jan 09:22:38 09:24:51 14° 60° (ENE) 09:27:13 145.880/145.840
CANX-2 28 Jan 09:25:52 09:30:03 55° 100° (E) 09:34:11 2200.000
HO-68 28 Jan 09:27:03 09:34:04 56° 101° (E) 09:41:06 435.675
BEESAT 3 28 Jan 09:27:07 09:28:50 12° 25° (NNE) 09:30:37 437.485
UWE-3 28 Jan 09:30:15 09:31:57 12° 85° (E) 09:33:51 435.000/436.395/437.385
QB50P1 28 Jan 09:31:49 09:34:31 17° 62° (ENE) 09:37:22 145.935-145.965
UNISAT 6 28 Jan 09:35:00 09:39:05 30° 67° (ENE) 09:43:13 437.425
AAUSAT CUBESAT 2 28 Jan 09:42:20 09:46:22 47° 99° (E) 09:50:23 437.432
DELFI C3 28 Jan 09:44:40 09:47:43 21° 92° (E) 09:50:49 145.870
POLYITAN 1 28 Jan 09:45:04 09:48:24 23° 65° (ENE) 09:51:51 437.675
Oscar 11 28 Jan 09:47:47 09:51:30 28° 94° (E) 09:55:14 145.826/435.025
BUGSAT 1 28 Jan 09:49:23 09:52:13 19° 63° (ENE) 09:55:13 437.445
CUTE 1.7 + AOD 2 28 Jan 09:50:10 09:54:27 89° 277° (W) 09:58:39 437.475
POPSAT HIP 1 28 Jan 10:05:06 10:08:57 34° 68° (ENE) 10:12:53 437.405
DUCHIFAT 1 28 Jan 10:08:23 10:12:16 36° 69° (ENE) 10:16:14 145.980
PHONESAT 2.4 28 Jan 10:09:09 10:10:44 13° 155° (SSE) 10:12:25 2401.200-2431.200
ANTELSAT 28 Jan 10:10:12 10:14:52 63° 73° (ENE) 10:19:32 437.575/2403.000
SO-50 28 Jan 10:13:43 10:16:03 14° 110° (ESE) 10:18:37 436.795
